CZ-2D DEB

Satellite information

Favourite Embed

Satellite Type and Status

DEBRISIN ORBIT

Key statistics

Satellite CZ-2D DEB at a glance.

Uptime

4978

Days in orbit

Revolutions

≈ 14.4

Per day

Orbit

SSO

Sun Synchronous Orbit

Inclination

98.8

Latest

Satellite identification and parameters

Extended collection of information and parameters for CZ-2D DEB.

Object identification

Identified? True

Debris? True

Object name: CZ-2D DEB

International designator: 2011-068F

Object number (NORAD): 38178

Object ID (CCSDS): 38178

Country: PEOPLES REPUBLIC OF CHINA (PRC)

Current information (Y/N): Y

RCS size: SMALL

Orbital parameters

Period: 100.117 minutes

Inclination: 98.7524 deg

SMA: 7142.189 km

Apoapsis: 850.506 km

Periapsis: 677.602 km

RAAN: 204.7966 deg

Eccentricy: 0.0121044

Argument of periapsis: 6.5271 deg

Mean anomaly: 51.2836 deg

Mean motion: 14.38320744 rev/day

Mean motion (dot): 0.00001429 rev/day2

B* drag term: 0.00044597 1/REarth

Two-line elements (TLE)

Creation date: July 6, 2025, 6:05 p.m.

Reference frame: TEME

Reference center: EARTH

Epoch: July 6, 2025, 6:33 a.m. UTC

TLE line 0: 0 CZ-2D DEB

TLE line 1: 1 38178U 11068F 25187.27308250 .00001429 00000-0 44597-3 0 9991

TLE line 2: 2 38178 98.7524 204.7966 0121044 6.5271 51.2836 14.38320744708366

Live tracking on map

Real-time ground track for satellite CZ-2D DEB.

In-orbit conjunctions

A list of the most updated potential collisions computed for object CZ-2D DEB.

Target Orbit TCA Probability of collision Miss distance Type
CZ-6 R/B LEO 2025-02-21 10:09:56 0.0001103727 637.0 (m) ROCKET BODY
LIBERTAD 1 SSO 2025-02-10 18:50:36 0.002793124 137.0 (m) PAYLOAD

Associated space launch

CZ-2D DEB was lifted into orbit during the mission ‘Long March 2D | Shiyan Weixing 4 & Chuang Xin 1C’, on board a Long March 2D space rocket.

The launch took place on Nov. 20, 2011, 12:15 a.m. from Launch Area 4 (SLS-2 / 603).

For more information about the launch, click the button.

Launch to space Long March 2D | Shiyan Weixing 4 & Chuang Xin 1C
Long March 2D | Shiyan Weixing 4 & Chuang Xin 1C

Agency: N/A

Status: Launch Successful

Launch date: Nov. 20, 2011, 12:15 a.m. UTC

Rocket: Long March 2D

Launch pad: Launch Area 4 (SLS-2 / 603)

Location: Jiuquan Satellite Launch Center, People's Republic of China

...

Latest news about this satellite

There are no fresh news available about this satellite. Check back as we update our databases every day.


Newsletter sign-up

Weekly statistics, charts and insights to help you stay on top of the space industry.